SBPASBSM

Guest
Details From SBPA - Salgado Filho
To SBSM - Santa Maria
Flight Number -
Tags generated
Created
Modified
Stats Distance 132 nm / 245 km
Max Altitude 8,200 ft / 2,499 m
Waypoints 3
Social Downloads 1
Likes 0
Share VATSIM

Download

Looking for another format? Having issues loading an existing format? Contact us
Advertisement - Login to hide

Notes

Basic altitude profile: - Ascent Rate: 2500ft/min - Ascent Speed: 250kts - Cruise Altitude: 35000ft - Cruise Speed: 420kts - Descent Rate: 1500ft/min - Descent Speed: 250kts Options: - Use NATs: yes - Use PACOTS: yes - Use low airways: yes - Use high airways: no

Route

SBPA IMPEL SBSM

ID Type Via Altitude Latitude Longitude Leg Dist Tot Dist Heading (true) Name
O SBPA APT - 0 ft / 0 m -29.99443˚ -51.17143˚ - 0 nm - Salgado Filho
IMPEL FIX - 8,200 ft / 2,499 m -29.80050˚ -52.95367˚ 93 nm 93 nm 277° / 278° -
O SBSM APT - 0 ft / 0 m -29.71235˚ -53.68911˚ 38 nm 132 nm 278° / 278° Santa Maria

Altitude Profile

Advertisement - Login to hide

SBPA

Details ICAO SBPA (POA)
Name Salgado Filho
Region Brazil
Timezone America/Sao_Paulo (UTC-2.0)
Stats Elevation 11 ft / 3 m (AMSL)
Location -29.994428° -51.171426°
Runways 1
Magnetic Variation 16.877° W

METAR

SBPA 121100Z 08011KT CAVOK 20/14 Q1018

Decode

TAF

Not found

Departure Runways

ID Width Length Bearing (true) Bearing (mag) Surface Threshold Offset Overrun Length
11 138 ft / 42 m 7,487 ft / 2,282 m 91.60° 108.48° Asphalt 0 ft / 0 m 230 ft / 70 m
29 138 ft / 42 m 7,487 ft / 2,282 m 271.59° 288.47° Asphalt 0 ft / 0 m 197 ft / 60 m

SBSM

Details ICAO SBSM (RIA)
Name Santa Maria
Region Brazil
Timezone America/Sao_Paulo (UTC-2.0)
Stats Elevation 287 ft / 87 m (AMSL)
Location -29.712352° -53.689105°
Runways 2
Magnetic Variation 15.274° W

METAR

SBSM 121100Z 12008KT CAVOK 19/13 Q1016

Decode

TAF

TAF SBSM 120300Z 1206/1218 10010KT CAVOK TN14/1209Z TX31/1217Z BECMG 1215/1218 07008KT RMK PDN

Decode

Destination Runways

ID Width Length Bearing (true) Bearing (mag) Surface Threshold Offset Overrun Length
02 100 ft / 30 m 5,806 ft / 1,770 m 2.56° 17.83° Asphalt 0 ft / 0 m 185 ft / 56 m
11 148 ft / 45 m 8,836 ft / 2,693 m 93.44° 108.71° Concrete 0 ft / 0 m 1,140 ft / 347 m
20 100 ft / 30 m 5,806 ft / 1,770 m 182.56° 197.83° Asphalt 1,170 ft / 357 m 0 ft / 0 m
29 148 ft / 45 m 8,836 ft / 2,693 m 273.43° 288.70° Concrete 0 ft / 0 m 1,140 ft / 347 m

Popular Alternatives